Regional Weather Roundup
Issued by NWS Little Rock, AR

Home | Current Version | Previous Version | Text Only | Print | Product List | Glossary Off
Versions: 1 2 3 4 5 6 7 8 9 10 11 12 13 14 15 16 17 18 19 20 21 22 23 24 25 26 27 28 29 30 31

000
ASUS44 KLZK 210305
RWRLZK

WEATHER ROUNDUP FOR ARKANSAS
NATIONAL WEATHER SERVICE LITTLE ROCK AR
1000 PM CDT FRI APR 20 2018

NOTE: "FAIR" INDICATES FEW OR NO CLOUDS BELOW 12,000 FEET WITH NO
SIGNIFICANT WEATHER AND/OR OBSTRUCTIONS TO VISIBILITY.

ARZ001-003-010-029-210400-
NORTHWEST ARKANSAS

CITY           SKY/WX    TMP DP  RH WIND       PRES   REMARKS
FAYETTEVILLE   CLOUDY    58  24  27 E9        30.16S
FORT SMITH     CLOUDY    60  33  36 E10       30.16R
HARRISON       PTCLDY    54  20  26 E8        30.23R
BENTONVILLE    CLOUDY    59  25  27 E12       30.18R
ROGERS         PTCLDY    59  25  27 E16G24    30.16S
SILOAM SPGS    CLOUDY    57  25  29 SE9       30.14F
HIGHFILL       CLOUDY    56  27  32 E10       30.15F
$$

ARZ004-005-016-210400-
NORTH CENTRAL ARKANSAS

CITY           SKY/WX    TMP DP  RH WIND       PRES   REMARKS
BATESVILLE     CLEAR     56  29  35 NE7       30.25F
FLIPPIN        CLOUDY    55  23  28 E5        30.26R
MTN HOME       CLOUDY    54  22  28 SE7       30.25R
$$

ARZ040-041-210400-
WEST CENTRAL ARKANSAS

CITY           SKY/WX    TMP DP  RH WIND       PRES   REMARKS
MENA           CLOUDY    55  36  47 CALM      30.18R
MOUNT IDA      CLOUDY    55  38  52 CALM      30.16S
$$

ARZ009-017-025-026-028-210400-
NORTHEAST ARKANSAS

CITY           SKY/WX    TMP DP  RH WIND       PRES   REMARKS
CORNING        FAIR      54  37  54 NE9       30.29R
JONESBORO      FAIR      53  36  52 NE9       30.26S
NEWPORT        FAIR      52  37  56 NE8       30.26R
WALNUT RIDGE   FAIR      50  36  58 NE9       30.27S
BLYTHEVILLE    FAIR      54  34  46 NE9       30.28R
$$

ARZ022-023-033-042-044-210400-
CENTRAL ARKANSAS

CITY           SKY/WX    TMP DP  RH WIND       PRES   REMARKS
LITTLE ROCK    PTCLDY    54  39  57 CALM      30.22F
N LITTLE ROCK    N/A     53  36  53 E3        30.20S
JACKSONVILLE   CLEAR     49  39  67 CALM      30.21F
CONWAY         MOCLDY    50  39  66 NE6       30.22R
SEARCY         FAIR      54  36  50 NE6       30.24S
HOT SPRINGS    CLOUDY    53  38  56 E6        30.20R
RUSSELLVILLE   PTCLDY    55  32  41 E3        30.21R
CLINTON        FAIR      46  37  71 CALM      30.24S
$$

ARZ036-210400-
EAST ARKANSAS

CITY           SKY/WX    TMP DP  RH WIND       PRES   REMARKS
WEST MEMPHIS   FAIR      56  37  49 NE6       30.24R
$$

ARZ050-053-066-070-073-210400-
SOUTHWEST ARKANSAS

CITY           SKY/WX    TMP DP  RH WIND       PRES   REMARKS
ARKADELPHIA    FAIR      55  42  61 NE6       30.20F
CAMDEN         FAIR      52  39  62 E5        30.18F
TEXARKANA      CLEAR     55  38  52 SE5       30.18R
EL DORADO      FAIR      50  45  83 E3        30.19S
DE QUEEN       CLEAR     55  40  56 E6        30.15R
$$

ARZ056-057-069-210400-
SOUTHEAST ARKANSAS

CITY           SKY/WX    TMP DP  RH WIND       PRES   REMARKS
PINE BLUFF     FAIR      55  41  59 CALM      30.22R
STUTTGART      FAIR      54  43  66 NE7       30.22S
MONTICELLO     FAIR      50  43  77 CALM      30.22R

$$






USA.gov is the U.S. government's official web portal to all federal, state and local government web resources and services.